Time,TemperatureF,DewpointF,PressureIn,WindDirection,WindDirectionDegrees,WindSpeedMPH,WindSpeedGustMPH,Humidity,HourlyPrecipIn,Conditions,Clouds,dailyrainin,SoftwareType,DateUTC
2013-07-29 00:01:00,58.3,54.7,29.98,SSW,203,6.0,9.0,88,0.00,,,0.40,meteohub,2013-07-29 04:01:00,
2013-07-29 00:02:00,58.3,54.7,29.98,SSW,195,4.0,9.0,88,0.00,,,0.40,meteohub,2013-07-29 04:02:00,
2013-07-29 00:04:00,58.3,55.0,29.98,South,172,4.0,9.0,89,0.00,,,0.40,meteohub,2013-07-29 04:04:00,
2013-07-29 00:07:00,58.3,55.0,29.98,SSW,203,4.0,9.0,89,0.00,,,0.40,meteohub,2013-07-29 04:07:00,
2013-07-29 00:12:00,58.3,55.0,29.98,SSW,197,5.0,7.0,89,0.00,,,0.40,meteohub,2013-07-29 04:12:00,
2013-07-29 00:17:00,58.3,55.0,29.98,SSE,152,4.0,7.0,89,0.00,,,0.40,meteohub,2013-07-29 04:17:00,
2013-07-29 00:22:00,58.3,55.0,29.98,South,177,5.0,7.0,89,0.00,,,0.40,meteohub,2013-07-29 04:22:00,
2013-07-29 00:27:00,58.3,55.0,29.98,South,183,4.0,7.0,89,0.00,,,0.00,meteohub,2013-07-29 04:27:00,
2013-07-29 00:32:00,58.5,54.9,29.97,SW,224,5.0,7.0,88,0.00,,,0.00,meteohub,2013-07-29 04:32:00,
2013-07-29 00:37:00,58.6,55.0,29.98,SW,214,5.0,8.0,88,0.00,,,0.00,meteohub,2013-07-29 04:37:00,
2013-07-29 00:42:00,58.8,55.0,29.98,SSW,212,3.0,8.0,87,0.00,,,0.00,meteohub,2013-07-29 04:42:00,
2013-07-29 00:47:00,59.2,55.0,29.98,SW,218,4.0,8.0,86,0.00,,,0.00,meteohub,2013-07-29 04:47:00,
2013-07-29 00:52:00,59.4,54.9,29.98,WSW,255,5.0,8.0,85,0.00,,,0.00,meteohub,2013-07-29 04:52:00,
2013-07-29 00:57:00,59.5,55.0,29.98,WNW,293,6.0,8.0,85,0.00,,,0.00,meteohub,2013-07-29 04:57:00,
2013-07-29 01:02:00,59.5,55.0,29.99,WNW,283,7.0,8.0,85,0.00,,,0.00,meteohub,2013-07-29 05:02:00,
2013-07-29 01:07:00,59.4,55.4,29.99,WNW,293,4.0,10.0,87,0.00,,,0.00,meteohub,2013-07-29 05:07:00,
2013-07-29 01:12:00,59.2,55.9,29.99,West,281,7.0,10.0,89,0.00,,,0.00,meteohub,2013-07-29 05:12:00,
2013-07-29 01:17:00,59.0,56.3,29.99,WNW,287,6.0,10.0,91,0.00,,,0.00,meteohub,2013-07-29 05:17:00,
2013-07-29 01:22:00,58.6,56.3,29.99,WNW,301,5.0,10.0,92,0.00,,,0.02,meteohub,2013-07-29 05:22:00,
2013-07-29 01:28:00,58.5,56.7,29.99,WNW,295,7.0,12.0,94,0.04,,,0.02,meteohub,2013-07-29 05:28:00,
2013-07-29 01:33:00,58.3,56.5,29.99,NW,314,4.0,12.0,94,0.04,,,0.02,meteohub,2013-07-29 05:33:00,
2013-07-29 01:38:00,58.1,56.3,30.00,NNE,32,6.0,12.0,94,0.04,,,0.06,meteohub,2013-07-29 05:38:00,
2013-07-29 01:44:00,57.7,55.9,30.00,NW,307,5.0,12.0,94,0.08,,,0.06,meteohub,2013-07-29 05:44:00,
2013-07-29 01:49:00,57.6,55.8,30.00,WNW,303,5.0,8.0,94,0.08,,,0.06,meteohub,2013-07-29 05:49:00,
2013-07-29 01:54:00,57.4,55.6,30.00,WNW,290,4.0,8.0,94,0.08,,,0.06,meteohub,2013-07-29 05:54:00,
2013-07-29 01:59:00,57.4,55.6,30.00,WNW,288,3.0,8.0,94,0.08,,,0.09,meteohub,2013-07-29 05:59:00,
2013-07-29 02:05:00,57.4,55.9,30.00,West,271,4.0,8.0,95,0.09,,,0.09,meteohub,2013-07-29 06:05:00,
2013-07-29 02:10:00,57.2,55.8,30.00,West,271,3.0,7.0,95,0.09,,,0.09,meteohub,2013-07-29 06:10:00,
2013-07-29 02:16:00,57.4,55.9,30.00,West,267,3.0,7.0,95,0.09,,,0.09,meteohub,2013-07-29 06:16:00,
2013-07-29 02:21:00,57.4,55.9,30.00,West,278,6.0,7.0,95,0.09,,,0.09,meteohub,2013-07-29 06:21:00,
2013-07-29 02:26:00,57.2,55.8,30.00,West,280,3.0,9.0,95,0.05,,,0.09,meteohub,2013-07-29 06:26:00,
2013-07-29 02:32:00,57.4,55.9,30.00,West,267,2.0,9.0,95,0.05,,,0.09,meteohub,2013-07-29 06:32:00,
2013-07-29 02:37:00,57.4,56.3,30.00,West,265,3.0,9.0,96,0.05,,,0.09,meteohub,2013-07-29 06:37:00,
2013-07-29 02:42:00,57.4,56.3,30.00,WSW,250,3.0,9.0,96,0.05,,,0.09,meteohub,2013-07-29 06:42:00,
2013-07-29 02:47:00,57.4,55.9,30.00,West,262,3.0,6.0,95,0.01,,,0.09,meteohub,2013-07-29 06:47:00,
2013-07-29 02:52:00,57.4,55.9,30.00,West,278,1.0,6.0,95,0.01,,,0.09,meteohub,2013-07-29 06:52:00,
2013-07-29 02:58:00,57.4,56.3,30.00,WNW,283,3.0,6.0,96,0.01,,,0.09,meteohub,2013-07-29 06:58:00,
2013-07-29 03:03:00,57.2,56.1,30.00,West,281,1.0,6.0,96,0.01,,,0.09,meteohub,2013-07-29 07:03:00,
2013-07-29 03:08:00,57.4,56.3,30.00,West,263,2.0,4.0,96,0.00,,,0.09,meteohub,2013-07-29 07:08:00,
2013-07-29 03:14:00,57.4,56.3,30.00,West,266,2.0,4.0,96,0.00,,,0.09,meteohub,2013-07-29 07:14:00,
2013-07-29 03:19:00,57.4,56.3,30.00,West,259,3.0,4.0,96,0.00,,,0.09,meteohub,2013-07-29 07:19:00,
2013-07-29 03:24:00,57.2,56.1,30.00,WNW,285,2.0,4.0,96,0.00,,,0.09,meteohub,2013-07-29 07:24:00,
2013-07-29 03:30:00,57.2,56.1,30.00,West,263,2.0,4.0,96,0.00,,,0.09,meteohub,2013-07-29 07:30:00,
2013-07-29 03:35:00,57.4,56.3,30.00,WSW,245,2.0,4.0,96,0.00,,,0.09,meteohub,2013-07-29 07:35:00,
2013-07-29 03:40:00,57.4,56.3,30.00,WSW,257,2.0,4.0,96,0.00,,,0.09,meteohub,2013-07-29 07:40:00,
2013-07-29 03:46:00,57.4,56.3,30.00,West,271,1.0,3.0,96,0.00,,,0.09,meteohub,2013-07-29 07:46:00,
2013-07-29 03:51:00,57.4,56.3,30.00,NW,307,1.0,3.0,96,0.00,,,0.09,meteohub,2013-07-29 07:51:00,
2013-07-29 03:56:00,57.4,56.3,30.00,NNW,330,2.0,3.0,96,0.00,,,0.09,meteohub,2013-07-29 07:56:00,
2013-07-29 04:02:00,57.2,56.1,30.01,NW,315,0.0,3.0,96,0.00,,,0.09,meteohub,2013-07-29 08:02:00,
2013-07-29 04:07:00,57.2,56.1,30.01,WNW,295,1.0,3.0,96,0.01,,,0.09,meteohub,2013-07-29 08:07:00,
2013-07-29 04:12:00,57.0,55.9,30.01,NW,319,4.0,4.0,96,0.01,,,0.09,meteohub,2013-07-29 08:12:00,
2013-07-29 04:17:00,57.0,55.9,30.01,NNW,338,3.0,3.0,96,0.01,,,0.10,meteohub,2013-07-29 08:17:00,
2013-07-29 04:22:00,57.0,55.9,30.01,NW,314,4.0,4.0,96,0.01,,,0.10,meteohub,2013-07-29 08:22:00,
2013-07-29 04:28:00,56.8,55.8,30.01,WNW,300,3.0,6.0,96,0.01,,,0.10,meteohub,2013-07-29 08:28:00,
2013-07-29 04:33:00,56.8,55.8,30.01,NW,314,4.0,6.0,96,0.01,,,0.10,meteohub,2013-07-29 08:33:00,
2013-07-29 04:38:00,56.8,55.8,30.01,NW,304,2.0,6.0,96,0.01,,,0.10,meteohub,2013-07-29 08:38:00,
2013-07-29 04:44:00,56.8,55.8,30.01,WNW,301,4.0,6.0,96,0.01,,,0.10,meteohub,2013-07-29 08:44:00,
2013-07-29 04:49:00,56.8,55.8,30.01,WNW,293,3.0,7.0,96,0.01,,,0.10,meteohub,2013-07-29 08:49:00,
2013-07-29 04:54:00,56.8,55.8,30.01,West,281,1.0,7.0,96,0.01,,,0.10,meteohub,2013-07-29 08:54:00,
2013-07-29 04:59:00,56.8,55.8,30.01,WNW,290,4.0,7.0,96,0.01,,,0.10,meteohub,2013-07-29 08:59:00,
2013-07-29 05:05:00,56.8,55.8,30.02,WNW,284,2.0,7.0,96,0.01,,,0.11,meteohub,2013-07-29 09:05:00,
2013-07-29 05:10:00,56.8,55.8,30.02,WNW,287,1.0,7.0,96,0.01,,,0.11,meteohub,2013-07-29 09:10:00,
2013-07-29 05:15:00,56.8,55.8,30.02,WSW,245,2.0,7.0,96,0.01,,,0.11,meteohub,2013-07-29 09:15:00,
2013-07-29 05:21:00,57.0,55.9,30.02,WSW,256,3.0,4.0,96,0.01,,,0.11,meteohub,2013-07-29 09:21:00,
2013-07-29 05:26:00,57.0,55.9,30.02,WSW,242,2.0,4.0,96,0.01,,,0.11,meteohub,2013-07-29 09:26:00,
2013-07-29 05:31:00,57.0,55.9,30.02,WSW,242,2.0,4.0,96,0.01,,,0.11,meteohub,2013-07-29 09:31:00,
2013-07-29 05:37:00,56.8,55.8,30.02,SW,233,2.0,4.0,96,0.01,,,0.11,meteohub,2013-07-29 09:37:00,
2013-07-29 05:42:00,56.8,55.8,30.02,WSW,248,3.0,4.0,96,0.01,,,0.11,meteohub,2013-07-29 09:42:00,
2013-07-29 05:47:00,56.8,55.8,30.02,WSW,253,2.0,4.0,96,0.01,,,0.11,meteohub,2013-07-29 09:47:00,
2013-07-29 05:52:00,56.8,55.8,30.02,WSW,252,2.0,4.0,96,0.01,,,0.11,meteohub,2013-07-29 09:52:00,
2013-07-29 05:57:00,56.8,55.8,30.03,West,269,1.0,4.0,96,0.01,,,0.11,meteohub,2013-07-29 09:57:00,
2013-07-29 06:03:00,56.8,55.8,30.03,WNW,283,2.0,4.0,96,0.01,,,0.11,meteohub,2013-07-29 10:03:00,
2013-07-29 06:08:00,56.8,55.8,30.03,West,280,2.0,4.0,96,0.01,,,0.11,meteohub,2013-07-29 10:08:00,
2013-07-29 06:14:00,57.0,55.9,30.03,WSW,255,2.0,4.0,96,0.01,,,0.11,meteohub,2013-07-29 10:14:00,
2013-07-29 06:21:00,56.8,55.8,30.03,West,272,3.0,5.0,96,0.00,,,0.11,meteohub,2013-07-29 10:21:00,
2013-07-29 06:26:00,56.8,55.8,30.04,WSW,253,3.0,5.0,96,0.00,,,0.11,meteohub,2013-07-29 10:26:00,
2013-07-29 06:32:00,56.8,55.8,30.04,West,264,3.0,5.0,96,0.00,,,0.11,meteohub,2013-07-29 10:32:00,
2013-07-29 06:37:00,56.8,55.8,30.04,WSW,256,4.0,5.0,96,0.00,,,0.11,meteohub,2013-07-29 10:37:00,
2013-07-29 06:45:00,56.8,55.8,30.04,West,276,3.0,5.0,96,0.00,,,0.11,meteohub,2013-07-29 10:45:00,
2013-07-29 06:51:00,56.8,55.8,30.05,WNW,293,3.0,5.0,96,0.00,,,0.11,meteohub,2013-07-29 10:51:00,
2013-07-29 06:56:00,56.8,55.8,30.05,West,281,2.0,5.0,96,0.00,,,0.11,meteohub,2013-07-29 10:56:00,
2013-07-29 07:01:00,56.8,55.9,30.05,West,266,3.0,5.0,97,0.00,,,0.11,meteohub,2013-07-29 11:01:00,
2013-07-29 07:07:00,56.8,55.8,30.05,West,267,2.0,5.0,96,0.00,,,0.11,meteohub,2013-07-29 11:07:00,
2013-07-29 07:14:00,56.8,55.8,30.05,West,278,3.0,4.0,96,0.00,,,0.11,meteohub,2013-07-29 11:14:00,
2013-07-29 07:19:00,56.8,55.8,30.06,West,278,2.0,4.0,96,0.00,,,0.11,meteohub,2013-07-29 11:19:00,
2013-07-29 07:27:00,57.0,56.1,30.06,WSW,253,2.0,4.0,97,0.00,,,0.11,meteohub,2013-07-29 11:27:00,
2013-07-29 07:32:00,57.0,55.9,30.06,West,279,2.0,4.0,96,0.00,,,0.11,meteohub,2013-07-29 11:32:00,
2013-07-29 07:38:00,57.0,55.9,30.06,WNW,295,2.0,4.0,96,0.00,,,0.11,meteohub,2013-07-29 11:38:00,
2013-07-29 07:47:00,57.2,56.1,30.06,NW,304,3.0,4.0,96,0.00,,,0.11,meteohub,2013-07-29 11:47:00,
2013-07-29 07:52:00,57.2,56.1,30.06,WNW,290,3.0,4.0,96,0.00,,,0.11,meteohub,2013-07-29 11:52:00,
2013-07-29 08:02:00,57.0,55.6,30.07,WNW,302,2.0,4.0,95,0.00,,,0.11,meteohub,2013-07-29 12:02:00,
2013-07-29 08:09:00,57.2,56.1,30.07,NW,318,2.0,4.0,96,0.00,,,0.11,meteohub,2013-07-29 12:09:00,
2013-07-29 08:17:00,57.0,55.6,30.08,NW,322,3.0,6.0,95,0.00,,,0.11,meteohub,2013-07-29 12:17:00,
2013-07-29 08:22:00,57.0,55.6,30.08,NW,305,3.0,6.0,95,0.00,,,0.11,meteohub,2013-07-29 12:22:00,
2013-07-29 08:27:00,57.0,55.6,30.08,WNW,301,1.0,6.0,95,0.00,,,0.11,meteohub,2013-07-29 12:27:00,
2013-07-29 08:34:00,57.2,55.8,30.08,WNW,295,4.0,6.0,95,0.00,,,0.11,meteohub,2013-07-29 12:34:00,
2013-07-29 08:41:00,57.4,55.9,30.08,WNW,283,2.0,5.0,95,0.00,,,0.11,meteohub,2013-07-29 12:41:00,
2013-07-29 08:46:00,57.6,55.8,30.08,NW,305,3.0,5.0,94,0.00,,,0.11,meteohub,2013-07-29 12:46:00,
2013-07-29 08:52:00,57.7,55.9,30.08,NW,305,4.0,6.0,94,0.00,,,0.11,meteohub,2013-07-29 12:52:00,
2013-07-29 08:57:00,57.7,55.9,30.09,WNW,292,3.0,6.0,94,0.00,,,0.11,meteohub,2013-07-29 12:57:00,
2013-07-29 09:02:00,57.9,56.1,30.09,WSW,252,5.0,6.0,94,0.00,,,0.11,meteohub,2013-07-29 13:02:00,
2013-07-29 09:07:00,57.9,55.9,30.09,WNW,298,5.0,6.0,93,0.00,,,0.11,meteohub,2013-07-29 13:07:00,
2013-07-29 09:13:00,58.1,56.3,30.09,WNW,287,3.0,6.0,94,0.00,,,0.11,meteohub,2013-07-29 13:13:00,
2013-07-29 09:21:00,58.3,56.3,30.09,WNW,295,2.0,6.0,93,0.00,,,0.11,meteohub,2013-07-29 13:21:00,
2013-07-29 09:27:00,58.5,56.1,30.10,WNW,295,5.0,6.0,92,0.00,,,0.11,meteohub,2013-07-29 13:27:00,
2013-07-29 09:32:00,58.5,56.1,30.09,WNW,302,2.0,7.0,92,0.00,,,0.11,meteohub,2013-07-29 13:32:00,
2013-07-29 09:37:00,58.6,56.3,30.10,WNW,290,7.0,7.0,92,0.00,,,0.11,meteohub,2013-07-29 13:37:00,
2013-07-29 09:47:00,58.6,56.3,30.10,WNW,286,5.0,7.0,92,0.00,,,0.11,meteohub,2013-07-29 13:47:00,
2013-07-29 09:54:00,58.6,55.8,30.10,WNW,284,6.0,9.0,90,0.00,,,0.11,meteohub,2013-07-29 13:54:00,
2013-07-29 10:02:00,59.2,56.5,30.11,WNW,288,2.0,9.0,91,0.00,,,0.11,meteohub,2013-07-29 14:02:00,
2013-07-29 10:07:00,59.4,56.5,30.11,WNW,293,6.0,9.0,90,0.00,,,0.11,meteohub,2013-07-29 14:07:00,
2013-07-29 10:12:00,59.5,56.3,30.11,West,274,7.0,9.0,89,0.00,,,0.11,meteohub,2013-07-29 14:12:00,
2013-07-29 10:18:00,60.1,56.8,30.11,West,276,6.0,8.0,89,0.00,,,0.11,meteohub,2013-07-29 14:18:00,
2013-07-29 10:24:00,60.1,56.1,30.11,WNW,295,7.0,8.0,87,0.00,,,0.11,meteohub,2013-07-29 14:24:00,
2013-07-29 10:29:00,60.1,56.1,30.11,WNW,298,9.0,9.0,87,0.00,,,0.11,meteohub,2013-07-29 14:29:00,
2013-07-29 10:35:00,59.9,55.4,30.12,WNW,295,6.0,10.0,85,0.00,,,0.11,meteohub,2013-07-29 14:35:00,
2013-07-29 10:40:00,59.7,55.6,30.12,WNW,298,4.0,10.0,86,0.00,,,0.11,meteohub,2013-07-29 14:40:00,
2013-07-29 10:47:00,59.5,55.9,30.12,WNW,293,6.0,10.0,88,0.00,,,0.11,meteohub,2013-07-29 14:47:00,
2013-07-29 10:52:00,59.5,55.6,30.12,NW,321,3.0,9.0,87,0.00,,,0.11,meteohub,2013-07-29 14:52:00,
2013-07-29 10:57:00,59.7,56.1,30.12,NNW,332,2.0,9.0,88,0.00,,,0.11,meteohub,2013-07-29 14:57:00,
2013-07-29 11:02:00,60.1,55.9,30.12,NW,308,4.0,9.0,86,0.00,,,0.11,meteohub,2013-07-29 15:02:00,
2013-07-29 11:09:00,60.1,55.6,30.12,WNW,287,6.0,9.0,85,0.00,,,0.11,meteohub,2013-07-29 15:09:00,
2013-07-29 11:14:00,60.8,56.3,30.12,NW,310,6.0,9.0,85,0.00,,,0.11,meteohub,2013-07-29 15:14:00,
2013-07-29 11:20:00,61.2,56.3,30.12,WNW,293,3.0,9.0,84,0.00,,,0.11,meteohub,2013-07-29 15:20:00,
2013-07-29 11:25:00,61.3,56.5,30.12,West,270,4.0,9.0,84,0.00,,,0.11,meteohub,2013-07-29 15:25:00,
2013-07-29 11:30:00,61.3,55.8,30.12,West,275,8.0,9.0,82,0.00,,,0.11,meteohub,2013-07-29 15:30:00,
2013-07-29 11:36:00,61.3,55.8,30.12,WNW,295,7.0,9.0,82,0.00,,,0.11,meteohub,2013-07-29 15:36:00,
2013-07-29 11:44:00,61.2,56.3,30.12,West,271,4.0,10.0,84,0.00,,,0.11,meteohub,2013-07-29 15:44:00,
2013-07-29 11:49:00,61.5,56.3,30.13,WNW,297,3.0,10.0,83,0.00,,,0.11,meteohub,2013-07-29 15:49:00,
2013-07-29 11:56:00,61.5,56.3,30.13,NW,312,4.0,10.0,83,0.00,,,0.11,meteohub,2013-07-29 15:56:00,
2013-07-29 12:02:00,61.9,55.9,30.13,NW,307,4.0,8.0,81,0.00,,,0.11,meteohub,2013-07-29 16:02:00,
2013-07-29 12:07:00,61.9,56.3,30.13,WNW,287,4.0,8.0,82,0.00,,,0.11,meteohub,2013-07-29 16:07:00,
2013-07-29 12:12:00,61.9,56.3,30.13,West,267,7.0,8.0,82,0.00,,,0.11,meteohub,2013-07-29 16:12:00,
2013-07-29 12:19:00,62.1,56.1,30.13,WNW,285,7.0,11.0,81,0.00,,,0.11,meteohub,2013-07-29 16:19:00,
2013-07-29 12:24:00,62.1,56.5,30.14,WNW,283,8.0,11.0,82,0.00,,,0.11,meteohub,2013-07-29 16:24:00,
2013-07-29 12:29:00,62.1,56.1,30.14,WNW,291,9.0,11.0,81,0.00,,,0.11,meteohub,2013-07-29 16:29:00,
2013-07-29 12:36:00,61.9,55.6,30.14,West,281,8.0,11.0,80,0.00,,,0.11,meteohub,2013-07-29 16:36:00,
2013-07-29 12:42:00,62.4,55.8,30.14,WSW,256,6.0,10.0,79,0.00,,,0.11,meteohub,2013-07-29 16:42:00,
2013-07-29 12:47:00,62.4,56.1,30.14,WNW,292,6.0,10.0,80,0.00,,,0.11,meteohub,2013-07-29 16:47:00,
2013-07-29 12:52:00,62.8,55.8,30.14,WNW,284,4.0,10.0,78,0.00,,,0.11,meteohub,2013-07-29 16:52:00,
2013-07-29 12:57:00,63.0,55.9,30.14,West,274,6.0,10.0,78,0.00,,,0.11,meteohub,2013-07-29 16:57:00,
2013-07-29 13:02:00,63.0,56.3,30.14,NW,304,7.0,10.0,79,0.00,,,0.11,meteohub,2013-07-29 17:02:00,
2013-07-29 13:07:00,63.0,55.9,30.14,WSW,256,5.0,10.0,78,0.00,,,0.11,meteohub,2013-07-29 17:07:00,
2013-07-29 13:12:00,63.1,55.8,30.15,West,277,10.0,10.0,77,0.00,,,0.11,meteohub,2013-07-29 17:12:00,
2013-07-29 13:18:00,63.0,55.2,30.15,WNW,301,7.0,9.0,76,0.00,,,0.11,meteohub,2013-07-29 17:18:00,
2013-07-29 13:24:00,63.0,55.9,30.15,WNW,293,10.0,10.0,78,0.00,,,0.11,meteohub,2013-07-29 17:24:00,
2013-07-29 13:29:00,62.8,55.4,30.15,West,274,8.0,12.0,77,0.00,,,0.11,meteohub,2013-07-29 17:29:00,
2013-07-29 13:37:00,63.0,55.6,30.15,WNW,284,6.0,12.0,77,0.00,,,0.11,meteohub,2013-07-29 17:37:00,
2013-07-29 13:42:00,63.3,55.9,30.15,WNW,290,8.0,12.0,77,0.00,,,0.11,meteohub,2013-07-29 17:42:00,
2013-07-29 13:47:00,63.3,55.2,30.15,WNW,298,7.0,12.0,75,0.00,,,0.11,meteohub,2013-07-29 17:47:00,
2013-07-29 13:54:00,63.5,55.4,30.15,West,271,6.0,12.0,75,0.00,,,0.11,meteohub,2013-07-29 17:54:00,
2013-07-29 14:00:00,63.7,55.2,30.16,West,266,6.0,12.0,74,0.00,,,0.11,meteohub,2013-07-29 18:00:00,
2013-07-29 14:05:00,64.2,56.5,30.16,WNW,298,2.0,12.0,76,0.00,,,0.11,meteohub,2013-07-29 18:05:00,
2013-07-29 14:15:00,64.6,56.1,30.16,West,278,8.0,10.0,74,0.00,,,0.11,meteohub,2013-07-29 18:15:00,
2013-07-29 14:20:00,64.6,56.1,30.16,West,281,10.0,10.0,74,0.00,,,0.11,meteohub,2013-07-29 18:20:00,
2013-07-29 14:26:00,64.6,56.1,30.16,WNW,287,7.0,13.0,74,0.00,,,0.11,meteohub,2013-07-29 18:26:00,
2013-07-29 14:32:00,64.2,56.1,30.16,WNW,284,12.0,13.0,75,0.00,,,0.11,meteohub,2013-07-29 18:32:00,
2013-07-29 14:38:00,64.0,55.6,30.16,West,276,5.0,13.0,74,0.00,,,0.11,meteohub,2013-07-29 18:38:00,
2013-07-29 14:43:00,64.0,55.9,30.16,WSW,256,7.0,13.0,75,0.00,,,0.11,meteohub,2013-07-29 18:43:00,
2013-07-29 14:48:00,64.9,57.2,30.16,NE,44,2.0,12.0,76,0.00,,,0.11,meteohub,2013-07-29 18:48:00,
2013-07-29 14:54:00,64.9,56.5,30.16,NNW,328,6.0,12.0,74,0.00,,,0.11,meteohub,2013-07-29 18:54:00,
2013-07-29 14:59:00,65.1,57.4,30.15,West,277,8.0,12.0,76,0.00,,,0.11,meteohub,2013-07-29 18:59:00,
2013-07-29 15:07:00,65.1,56.3,30.15,WNW,295,6.0,12.0,73,0.00,,,0.11,meteohub,2013-07-29 19:07:00,
2013-07-29 15:12:00,66.0,56.3,30.16,West,280,5.0,10.0,71,0.00,,,0.11,meteohub,2013-07-29 19:12:00,
2013-07-29 15:17:00,66.0,56.3,30.16,WNW,293,5.0,10.0,71,0.00,,,0.11,meteohub,2013-07-29 19:17:00,
2013-07-29 15:22:00,65.8,56.5,30.16,WNW,295,7.0,10.0,72,0.00,,,0.11,meteohub,2013-07-29 19:22:00,
2013-07-29 15:30:00,65.7,56.3,30.16,West,269,5.0,10.0,72,0.00,,,0.11,meteohub,2013-07-29 19:30:00,
2013-07-29 15:36:00,65.7,56.3,30.16,West,280,5.0,10.0,72,0.00,,,0.11,meteohub,2013-07-29 19:36:00,
2013-07-29 15:42:00,65.3,56.5,30.16,West,276,4.0,10.0,73,0.00,,,0.11,meteohub,2013-07-29 19:42:00,
2013-07-29 15:47:00,65.8,57.4,30.16,WNW,292,5.0,10.0,74,0.00,,,0.11,meteohub,2013-07-29 19:47:00,
2013-07-29 15:52:00,66.6,56.1,30.16,West,278,5.0,10.0,69,0.00,,,0.11,meteohub,2013-07-29 19:52:00,
2013-07-29 15:58:00,66.7,55.8,30.16,West,267,4.0,10.0,68,0.00,,,0.11,meteohub,2013-07-29 19:58:00,
2013-07-29 16:03:00,66.6,56.1,30.17,WNW,298,8.0,10.0,69,0.00,,,0.11,meteohub,2013-07-29 20:03:00,
2013-07-29 16:08:00,66.2,55.8,30.17,WNW,293,4.0,10.0,69,0.00,,,0.11,meteohub,2013-07-29 20:08:00,
2013-07-29 16:15:00,66.0,56.7,30.17,SW,231,9.0,13.0,72,0.00,,,0.11,meteohub,2013-07-29 20:15:00,
2013-07-29 16:21:00,66.6,56.5,30.17,WSW,256,11.0,13.0,70,0.00,,,0.11,meteohub,2013-07-29 20:21:00,
2013-07-29 16:26:00,66.4,56.3,30.17,West,277,4.0,12.0,70,0.00,,,0.11,meteohub,2013-07-29 20:26:00,
2013-07-29 16:32:00,66.4,56.3,30.17,West,265,7.0,12.0,70,0.00,,,0.11,meteohub,2013-07-29 20:32:00,
2013-07-29 16:39:00,66.4,55.9,30.17,West,264,4.0,12.0,69,0.00,,,0.11,meteohub,2013-07-29 20:39:00,
2013-07-29 16:47:00,66.6,56.5,30.17,West,274,4.0,10.0,70,0.00,,,0.11,meteohub,2013-07-29 20:47:00,
2013-07-29 16:55:00,66.7,56.3,30.17,West,273,4.0,10.0,69,0.00,,,0.11,meteohub,2013-07-29 20:55:00,
2013-07-29 17:00:00,67.1,56.7,30.17,West,274,1.0,10.0,69,0.00,,,0.11,meteohub,2013-07-29 21:00:00,
2013-07-29 17:05:00,66.9,55.9,30.17,WSW,242,5.0,10.0,68,0.00,,,0.11,meteohub,2013-07-29 21:05:00,
2013-07-29 17:11:00,67.1,56.7,30.17,NW,314,4.0,8.0,69,0.00,,,0.11,meteohub,2013-07-29 21:11:00,
2013-07-29 17:17:00,66.9,56.8,30.17,WNW,287,6.0,8.0,70,0.00,,,0.11,meteohub,2013-07-29 21:17:00,
2013-07-29 17:22:00,66.9,56.8,30.17,WNW,287,5.0,8.0,70,0.00,,,0.11,meteohub,2013-07-29 21:22:00,
2013-07-29 17:27:00,67.3,56.3,30.17,WNW,301,4.0,8.0,68,0.00,,,0.11,meteohub,2013-07-29 21:27:00,
2013-07-29 17:32:00,67.1,56.1,30.17,West,280,5.0,8.0,68,0.00,,,0.11,meteohub,2013-07-29 21:32:00,
2013-07-29 17:38:00,66.9,56.5,30.17,West,274,6.0,8.0,69,0.00,,,0.11,meteohub,2013-07-29 21:38:00,
2013-07-29 17:44:00,67.3,56.3,30.17,West,274,4.0,8.0,68,0.00,,,0.11,meteohub,2013-07-29 21:44:00,
2013-07-29 17:49:00,67.5,56.5,30.16,WNW,297,5.0,9.0,68,0.00,,,0.11,meteohub,2013-07-29 21:49:00,
2013-07-29 17:57:00,67.6,56.7,30.17,West,264,4.0,9.0,68,0.00,,,0.11,meteohub,2013-07-29 21:57:00,
2013-07-29 18:02:00,67.5,56.1,30.17,West,274,4.0,9.0,67,0.00,,,0.11,meteohub,2013-07-29 22:02:00,
2013-07-29 18:07:00,67.8,56.5,30.17,WSW,241,5.0,9.0,67,0.00,,,0.11,meteohub,2013-07-29 22:07:00,
2013-07-29 18:17:00,67.8,57.2,30.17,WSW,253,4.0,8.0,69,0.00,,,0.11,meteohub,2013-07-29 22:17:00,
2013-07-29 18:22:00,68.0,57.0,30.17,WSW,252,6.0,8.0,68,0.00,,,0.11,meteohub,2013-07-29 22:22:00,
2013-07-29 18:28:00,68.0,56.7,30.17,WNW,298,5.0,8.0,67,0.00,,,0.11,meteohub,2013-07-29 22:28:00,
2013-07-29 18:36:00,67.8,56.5,30.17,WNW,284,2.0,8.0,67,0.00,,,0.11,meteohub,2013-07-29 22:36:00,
2013-07-29 18:43:00,67.8,57.2,30.17,WNW,301,6.0,7.0,69,0.00,,,0.11,meteohub,2013-07-29 22:43:00,
2013-07-29 18:48:00,67.5,57.4,30.17,WNW,287,6.0,7.0,70,0.00,,,0.11,meteohub,2013-07-29 22:48:00,
2013-07-29 18:55:00,67.5,57.0,30.17,WNW,286,5.0,7.0,69,0.00,,,0.11,meteohub,2013-07-29 22:55:00,
2013-07-29 19:00:00,67.6,57.0,30.17,WSW,248,6.0,7.0,69,0.00,,,0.11,meteohub,2013-07-29 23:00:00,
2013-07-29 19:05:00,67.6,57.0,30.17,West,264,4.0,7.0,69,0.00,,,0.11,meteohub,2013-07-29 23:05:00,
2013-07-29 19:11:00,67.3,57.2,30.17,West,266,3.0,7.0,70,0.00,,,0.11,meteohub,2013-07-29 23:11:00,
2013-07-29 19:17:00,67.1,57.4,30.17,West,276,5.0,7.0,71,0.00,,,0.11,meteohub,2013-07-29 23:17:00,
2013-07-29 19:22:00,66.9,57.2,30.17,West,264,3.0,7.0,71,0.00,,,0.11,meteohub,2013-07-29 23:22:00,
2013-07-29 19:30:00,66.9,56.8,30.17,WNW,284,4.0,6.0,70,0.00,,,0.11,meteohub,2013-07-29 23:30:00,
2013-07-29 19:35:00,66.7,57.0,30.17,WSW,245,5.0,6.0,71,0.00,,,0.11,meteohub,2013-07-29 23:35:00,
2013-07-29 19:40:00,66.6,57.2,30.17,West,269,2.0,6.0,72,0.00,,,0.11,meteohub,2013-07-29 23:40:00,
2013-07-29 19:46:00,66.6,57.6,30.17,West,273,5.0,6.0,73,0.00,,,0.11,meteohub,2013-07-29 23:46:00,
2013-07-29 19:51:00,66.4,57.4,30.17,West,262,3.0,7.0,73,0.00,,,0.11,meteohub,2013-07-29 23:51:00,
2013-07-29 19:57:00,66.0,57.2,30.18,WSW,256,3.0,7.0,73,0.00,,,0.11,meteohub,2013-07-29 23:57:00,
2013-07-29 20:03:00,65.8,57.7,30.18,West,262,2.0,7.0,75,0.00,,,0.11,meteohub,2013-07-30 00:03:00,
2013-07-29 20:08:00,65.8,57.7,30.18,West,266,2.0,7.0,75,0.00,,,0.11,meteohub,2013-07-30 00:08:00,
2013-07-29 20:16:00,65.7,57.9,30.19,WSW,245,2.0,4.0,76,0.00,,,0.11,meteohub,2013-07-30 00:16:00,
2013-07-29 20:22:00,65.7,57.9,30.19,WNW,290,3.0,4.0,76,0.00,,,0.11,meteohub,2013-07-30 00:22:00,
2013-07-29 20:27:00,65.8,57.7,30.19,West,271,3.0,6.0,75,0.00,,,0.11,meteohub,2013-07-30 00:27:00,
2013-07-29 20:32:00,65.8,57.4,30.19,WNW,286,3.0,6.0,74,0.00,,,0.11,meteohub,2013-07-30 00:32:00,
2013-07-29 20:38:00,65.7,57.2,30.19,West,273,4.0,6.0,74,0.00,,,0.11,meteohub,2013-07-30 00:38:00,
2013-07-29 20:45:00,65.1,57.0,30.19,West,264,6.0,6.0,75,0.00,,,0.11,meteohub,2013-07-30 00:45:00,
2013-07-29 20:50:00,64.2,56.5,30.19,West,264,2.0,10.0,76,0.00,,,0.11,meteohub,2013-07-30 00:50:00,
2013-07-29 20:55:00,64.0,57.0,30.19,West,264,2.0,10.0,78,0.00,,,0.11,meteohub,2013-07-30 00:55:00,
2013-07-29 21:02:00,63.5,56.8,30.19,WSW,255,1.0,10.0,79,0.00,,,0.11,meteohub,2013-07-30 01:02:00,
2013-07-29 21:07:00,63.1,56.8,30.19,West,264,3.0,10.0,80,0.00,,,0.11,meteohub,2013-07-30 01:07:00,
2013-07-29 21:14:00,62.8,56.5,30.20,West,270,2.0,5.0,80,0.00,,,0.11,meteohub,2013-07-30 01:14:00,
2013-07-29 21:21:00,62.2,56.7,30.19,WSW,255,1.0,5.0,82,0.00,,,0.11,meteohub,2013-07-30 01:21:00,
2013-07-29 21:27:00,61.5,56.3,30.20,WSW,256,1.0,4.0,83,0.00,,,0.11,meteohub,2013-07-30 01:27:00,
2013-07-29 21:32:00,61.5,56.3,30.19,West,273,1.0,4.0,83,0.00,,,0.11,meteohub,2013-07-30 01:32:00,
2013-07-29 21:37:00,61.2,56.3,30.20,West,267,0.0,4.0,84,0.00,,,0.11,meteohub,2013-07-30 01:37:00,
2013-07-29 21:42:00,60.8,56.3,30.20,WSW,256,1.0,4.0,85,0.00,,,0.11,meteohub,2013-07-30 01:42:00,
2013-07-29 21:47:00,60.6,56.5,30.20,WSW,256,1.0,4.0,86,0.00,,,0.11,meteohub,2013-07-30 01:47:00,
2013-07-29 21:53:00,60.4,56.3,30.20,WSW,250,1.0,1.0,86,0.00,,,0.11,meteohub,2013-07-30 01:53:00,
2013-07-29 21:59:00,60.1,56.1,30.21,West,259,1.0,1.0,87,0.00,,,0.11,meteohub,2013-07-30 01:59:00,
2013-07-29 22:04:00,59.7,55.8,30.21,West,259,2.0,2.0,87,0.00,,,0.11,meteohub,2013-07-30 02:04:00,
2013-07-29 22:10:00,59.4,55.8,30.21,WSW,245,1.0,2.0,88,0.00,,,0.11,meteohub,2013-07-30 02:10:00,
2013-07-29 22:17:00,59.4,56.1,30.21,WSW,245,1.0,2.0,89,0.00,,,0.11,meteohub,2013-07-30 02:17:00,
2013-07-29 22:22:00,59.2,55.9,30.22,WSW,241,2.0,2.0,89,0.00,,,0.11,meteohub,2013-07-30 02:22:00,
2013-07-29 22:27:00,59.2,55.9,30.22,WSW,245,2.0,2.0,89,0.00,,,0.11,meteohub,2013-07-30 02:27:00,
2013-07-29 22:32:00,58.8,55.6,30.22,WSW,245,0.0,2.0,89,0.00,,,0.11,meteohub,2013-07-30 02:32:00,
2013-07-29 22:37:00,58.8,55.6,30.22,WSW,245,0.0,2.0,89,0.00,,,0.11,meteohub,2013-07-30 02:37:00,
2013-07-29 22:45:00,58.5,55.2,30.22,WSW,245,0.0,2.0,89,0.00,,,0.11,meteohub,2013-07-30 02:45:00,
2013-07-29 22:52:00,57.4,54.9,30.21,WSW,245,0.0,2.0,91,0.00,,,0.11,meteohub,2013-07-30 02:52:00,
2013-07-29 22:57:00,57.0,54.5,30.22,WSW,245,0.0,2.0,91,0.00,,,0.11,meteohub,2013-07-30 02:57:00,
2013-07-29 23:02:00,56.7,54.1,30.22,WSW,245,0.0,2.0,91,0.00,,,0.11,meteohub,2013-07-30 03:02:00,
2013-07-29 23:07:00,56.3,54.0,30.22,WSW,245,0.0,0.0,92,0.00,,,0.11,meteohub,2013-07-30 03:07:00,
2013-07-29 23:12:00,56.1,53.8,30.22,WSW,245,0.0,0.0,92,0.00,,,0.11,meteohub,2013-07-30 03:12:00,
2013-07-29 23:20:00,55.9,54.0,30.22,WSW,245,0.0,0.0,93,0.00,,,0.11,meteohub,2013-07-30 03:20:00,
2013-07-29 23:26:00,55.9,54.3,30.22,WSW,245,0.0,0.0,94,0.00,,,0.11,meteohub,2013-07-30 03:26:00,
2013-07-29 23:31:00,55.8,54.1,30.21,WSW,245,0.0,0.0,94,0.00,,,0.11,meteohub,2013-07-30 03:31:00,
2013-07-29 23:38:00,55.6,54.0,30.21,WSW,245,0.0,0.0,94,0.00,,,0.11,meteohub,2013-07-30 03:38:00,
2013-07-29 23:43:00,55.2,53.6,30.21,WSW,245,0.0,0.0,94,0.00,,,0.11,meteohub,2013-07-30 03:43:00,
2013-07-29 23:49:00,55.0,53.4,30.21,WSW,245,0.0,1.0,94,0.00,,,0.11,meteohub,2013-07-30 03:49:00,
2013-07-29 23:54:00,55.0,53.6,30.21,WSW,245,0.0,1.0,95,0.00,,,0.11,meteohub,2013-07-30 03:54:00,
2013-07-29 23:59:00,55.0,53.6,30.21,WSW,245,0.0,1.0,95,0.00,,,0.11,meteohub,2013-07-30 03:59:00,